Meteo Giornale » Osservazioni meteo Canada » Sandspit B C
ore: 10:00 - Osservazioni Meteo Sandspit B C
Lat. 53° 15' N Lon. 131° 49' W Alt. 6 metri s.l.m.
16 °C
Nuvoloso
Temp. 24 Ore
13 °C
18 °C
Nord
3.7 Km/h
Dew point 13 °C
Umidità 82 %
Visibilità 14 Km
Il sole sorge alle ore 06:56
Il sole tramonta alle ore 20:38
| Data e Ora | Cielo e Fenomeni | T °C | DP °C | Um. % | Pres. hPa | Vis. km | Vento km/h | |
|---|---|---|---|---|---|---|---|---|
| Oggi h: 10:00 | Nuvoloso | 16 | 13 | 82 | 1008 | 14 | N 3.7 | |
| Oggi h: 09:00 | Molto Nuvoloso | 15 | 13 | 87 | 1008 | 14 | N/NO 7.4 | |
| Oggi h: 08:47 | Coperto | 14 | 13 | 93 | 1008 | 14 | N 13 | |
| Oggi h: 08:00 | Molto Nuvoloso | 14 | 13 | 93 | 1008 | 14 | O 13 | |
| Oggi h: 07:21 | Molto Nuvoloso | 13 | 13 | 100 | 1008 | 14 | N 13 | |
| Oggi h: 07:07 | Coperto | 13 | 13 | 100 | 1008 | 11 | N/NO 14.8 | |
| Oggi h: 07:01 | Foschia | 13 | 13 | 100 | 1008 | 6 | NO 9.3 | |
| Oggi h: 07:00 | Pioggia Foschia | 13 | 13 | 100 | 1008 | 6 | N/NO 9.3 | |
| Oggi h: 06:40 | Pioggia Foschia | 13 | 13 | 100 | 1008 | 5 | N/NO 14.8 | |
| Oggi h: 06:31 | Pioggia Foschia | 13 | 13 | 100 | 1008 | 3 | N/NO 20.3 | |
| Oggi h: 06:15 | Pioggia Foschia | 13 | 13 | 100 | 1008 | 5 | N/NO 22.2 | |
| Oggi h: 06:11 | Pioggia Foschia | 13 | 13 | 100 | 1008 | 3 | N/NO 25.9 | |
| Oggi h: 06:08 | Foschia | 13 | 13 | 100 | 1008 | 2 | NO 22.2 | |
| Oggi h: 06:00 | Pioggia Foschia | 13 | 13 | 100 | 1007 | 6 | NO 24 | |
| Oggi h: 05:55 | Pioggia Foschia | 13 | 13 | 100 | 1008 | 5 | NO 18.5 | |
| Oggi h: 05:51 | Pioggia Foschia | 13 | 13 | 100 | 1008 | 3 | NO 14.8 | |
| Oggi h: 05:44 | Pioggia Foschia | 13 | 13 | 100 | 1007 | 5 | NO 18.5 | |
| Oggi h: 05:42 | Foschia | 13 | 13 | 100 | 1007 | 5 | NO 20.3 | |
| Oggi h: 05:41 | Foschia | 13 | 13 | 100 | 1007 | 2 | NO 22.2 | |
| Oggi h: 05:37 | Foschia | 13 | 13 | 100 | 1007 | 8 | NO 24 | |
| Oggi h: 05:29 | Molto Nuvoloso | 14 | 13 | 93 | 1007 | 14 | NO 20.3 | |
| Oggi h: 05:21 | Coperto | 14 | 13 | 93 | 1007 | 14 | N/NO 25.9 | |
| Oggi h: 05:18 | Pioggia | 14 | 13 | 93 | 1007 | 11 | N/NO 24 | |
| Oggi h: 05:14 | Pioggia Foschia | 14 | 13 | 93 | 1007 | 5 | N/NO 24 | |
| Oggi h: 05:11 | Pioggia Foschia | 14 | 13 | 93 | 1007 | 3 | N/NO 18.5 | |
| Oggi h: 05:07 | Pioggia Foschia | 14 | 14 | 100 | 1007 | 5 | NO 22.2 | |
| Oggi h: 05:00 | Pioggia Foschia | 14 | 14 | 100 | 1007 | 2 | NO 24 | |
| Oggi h: 04:58 | Pioggia Foschia | 14 | 14 | 100 | 1007 | 2 | NO 24 | |
| Oggi h: 04:55 | Pioggia Foschia | 14 | 14 | 100 | 1007 | 3 | N/NO 22.2 | |
| Oggi h: 04:54 | Pioggia Foschia | 14 | 14 | 100 | 1007 | 5 | N/NO 20.3 | |
| Oggi h: 04:52 | Pioggia Foschia | 14 | 14 | 100 | 1007 | 2 | NO 20.3 | |
| Oggi h: 04:40 | Pioggia Foschia | 14 | 14 | 100 | 1007 | 5 | NO 22.2 | |
| Oggi h: 04:38 | Foschia | 14 | 14 | 100 | 1007 | 2 | N/NO 24 | |
| Oggi h: 04:35 | Foschia | 15 | 14 | 93 | 1007 | 6 | NO 20.3 | |
| Oggi h: 04:07 | Coperto | 15 | 14 | 93 | 1007 | 14 | N/NO 18.5 | |
| Oggi h: 04:00 | Coperto | 15 | 15 | 100 | 1007 | 14 | O 11.1 | |
| Oggi h: 03:00 | Coperto | 15 | 15 | 100 | 1008 | 14 | S 9.3 | |
| Oggi h: 02:54 | Molto Nuvoloso | 15 | 15 | 100 | 1008 | 14 | S 11.1 | |
| Oggi h: 02:40 | Coperto | 15 | 14 | 93 | 1008 | 14 | S 9.3 | |
| Oggi h: 02:04 | Poco Nuvoloso | 15 | 15 | 100 | 1008 | 14 | S/SE 14.8 | |
| Oggi h: 02:00 | Pioggia | 15 | 15 | 100 | 1008 | 13 | S/SE 14.8 | |
| Oggi h: 01:35 | Pioggia | 15 | 15 | 100 | 1008 | 14 | S/SE 14.8 | |
| Oggi h: 01:26 | Coperto | 15 | 15 | 100 | 1008 | 14 | S/SE 7.4 | |
| Oggi h: 01:25 | Pioggia | 15 | 15 | 100 | 1008 | 14 | S/SE 7.4 | |
| Oggi h: 01:16 | Pioggia Foschia | 15 | 15 | 100 | 1008 | 10 | S/SE 7.4 | |
| Oggi h: 01:08 | Pioggia Foschia | 15 | 15 | 100 | 1008 | 5 | S/SE 7.4 | |
| Oggi h: 01:03 | Pioggia Foschia | 15 | 15 | 100 | 1008 | 2 | S/SE 7.4 | |
| Oggi h: 01:00 | Foschia | 15 | 15 | 100 | 1008 | 2 | S/SE 7.4 | |
| Oggi h: 00:56 | Foschia | 15 | 15 | 100 | 1009 | 2 | S/SE 7.4 | |
| Oggi h: 00:51 | Foschia | 15 | 15 | 100 | 1009 | 8 | S/SE 7.4 | |
| Oggi h: 00:23 | Coperto | 15 | 15 | 100 | 1009 | 14 | N 5.5 | |
| Oggi h: 00:11 | Pioggia | 15 | 15 | 100 | 1009 | 11 | S/SE 7.4 | |
| Oggi h: 00:10 | Foschia | 15 | 15 | 100 | 1009 | 10 | S/SE 7.4 | |
| Oggi h: 00:02 | Foschia | 15 | 15 | 100 | 1009 | 8 | N 5.5 | |
| Oggi h: 00:00 | Coperto | 15 | 15 | 100 | 1009 | 13 | N 5.5 | |
| Ieri h: 23:36 | Coperto | 15 | 15 | 100 | 1009 | 14 | N 3.7 | |
| Ieri h: 23:18 | Pioggia | 15 | 15 | 100 | 1009 | 11 | N 3.7 | |
| Ieri h: 23:10 | Coperto | 15 | 15 | 100 | 1009 | 14 | N 3.7 | |
| Ieri h: 23:00 | Pioggia | 15 | 15 | 100 | 1009 | 14 | N 3.7 | |
| Ieri h: 22:27 | Pioggia | 15 | 15 | 100 | 1009 | 14 | N 5.5 | |
| Ieri h: 22:00 | Pioggia | 15 | 15 | 100 | 1010 | 14 | N 5.5 | |
| Ieri h: 21:43 | Pioggia | 15 | 15 | 100 | 1010 | 14 | SE 13 | |
| Ieri h: 21:39 | Pioggia | 15 | 15 | 100 | 1010 | 14 | SE 13 | |
| Ieri h: 21:08 | Pioggia | 16 | 15 | 93 | 1010 | 14 | E/SE 13 | |
| Ieri h: 21:07 | Coperto | 16 | 15 | 93 | 1010 | 14 | E 13 | |
| Ieri h: 21:02 | Coperto | 15 | 15 | 100 | 1010 | 14 | N 5.5 | |
| Ieri h: 21:00 | Pioggia | 15 | 15 | 100 | 1010 | 14 | E 7.4 | |
| Ieri h: 20:49 | Pioggia | 15 | 15 | 100 | 1010 | 13 | E/NE 7.4 | |
| Ieri h: 20:34 | Pioggia Foschia | 15 | 15 | 100 | 1010 | 10 | E 7.4 | |
| Ieri h: 20:29 | Pioggia Foschia | 15 | 15 | 100 | 1010 | 6 | E/NE 7.4 | |
| Ieri h: 20:24 | Foschia | 15 | 15 | 100 | 1010 | 8 | E 7.4 | |
| Ieri h: 20:00 | Molto Nuvoloso | 15 | 15 | 100 | 1010 | 14 | E 7.4 | |
| Ieri h: 19:59 | Coperto | 15 | 15 | 100 | 1010 | 14 | E 7.4 | |
| Ieri h: 19:26 | Pioggia | 15 | 15 | 100 | 1010 | 14 | N 5.5 | |
| Ieri h: 19:12 | Pioggia Foschia | 15 | 15 | 100 | 1010 | 10 | N 5.5 | |
| Ieri h: 19:00 | Pioggia Foschia | 15 | 15 | 100 | 1010 | 8 | N 5.5 | |
| Ieri h: 18:47 | Pioggia Foschia | 15 | 15 | 100 | 1010 | 5 | N 3.7 | |
| Ieri h: 18:40 | Pioggia Foschia | 15 | 14 | 93 | 1010 | 2 | N 5.5 | |
| Ieri h: 18:39 | Foschia | 15 | 14 | 93 | 1011 | 2 | N 3.7 | |
| Ieri h: 18:34 | Foschia | 15 | 14 | 93 | 1011 | 8 | N 5.5 | |
| Ieri h: 18:32 | Coperto | 15 | 14 | 93 | 1011 | 13 | N 5.5 | |
| Ieri h: 18:15 | Coperto | 15 | 14 | 93 | 1011 | 14 | E/NE 9.3 | |
| Ieri h: 18:09 | Pioggia Foschia | 15 | 14 | 93 | 1011 | 10 | NE 9.3 | |
| Ieri h: 18:00 | Pioggia Foschia | 15 | 14 | 93 | 1011 | 5 | NE 11.1 | |
| Ieri h: 17:52 | Pioggia Foschia | 15 | 14 | 93 | 1011 | 3 | NE 13 | |
| Ieri h: 17:41 | Pioggia Foschia | 15 | 14 | 93 | 1011 | 5 | NE 13 | |
| Ieri h: 17:39 | Pioggia Foschia | 15 | 14 | 93 | 1011 | 5 | NE 13 | |
| Ieri h: 17:32 | Pioggia Foschia | 15 | 14 | 93 | 1011 | 2 | E/NE 14.8 | |
| Ieri h: 17:27 | Pioggia Foschia | 15 | 14 | 93 | 1011 | 5 | E/NE 13 | |
| Ieri h: 17:21 | Pioggia Foschia | 15 | 14 | 93 | 1011 | 5 | E/NE 14.8 | |
| Ieri h: 17:15 | Pioggia Foschia | 15 | 14 | 93 | 1011 | 3 | E/NE 16.7 | |
| Ieri h: 17:11 | Pioggia Foschia | 15 | 14 | 93 | 1011 | 2 | E/NE 16.7 | |
| Ieri h: 17:10 | Pioggia Foschia | 15 | 14 | 93 | 1011 | 5 | E/NE 18.5 | |
| Ieri h: 17:08 | Foschia | 15 | 14 | 93 | 1011 | 6 | E/NE 18.5 | |
| Ieri h: 17:00 | Coperto | 15 | 14 | 93 | 1011 | 14 | NE 18.5 | |
| Ieri h: 16:00 | Molto Nuvoloso | 15 | 14 | 93 | 1011 | 14 | N/NE 18.5 | |
| Ieri h: 15:45 | Molto Nuvoloso | 15 | 14 | 93 | 1011 | 14 | N/NE 24 | |
| Ieri h: 15:31 | Molto Nuvoloso | 15 | 14 | 93 | 1011 | 14 | N/NE 24 | |
| Ieri h: 15:30 | Nuvoloso | 15 | 14 | 93 | 1011 | 14 | N/NE 24 | |
| Ieri h: 15:18 | Molto Nuvoloso | 15 | 15 | 100 | 1011 | 14 | N/NE 25.9 | |
| Ieri h: 15:11 | Pioggia | 15 | 15 | 100 | 1011 | 11 | N/NE 25.9 | |
| Ieri h: 15:03 | Pioggia Foschia | 15 | 15 | 100 | 1011 | 5 | N/NE 24 | |
| Ieri h: 15:00 | Pioggia Foschia | 15 | 15 | 100 | 1011 | 5 | N/NE 22.2 | |
| Ieri h: 14:57 | Pioggia Foschia | 15 | 15 | 100 | 1011 | 2 | N/NE 20.3 | |
| Ieri h: 14:54 | Pioggia Foschia | 15 | 15 | 100 | 1011 | 5 | N/NE 22.2 | |
| Ieri h: 14:49 | Pioggia Foschia | 15 | 15 | 100 | 1011 | 2 | NE 22.2 | |
| Ieri h: 14:47 | Pioggia Foschia | 15 | 14 | 93 | 1011 | 5 | NE 22.2 | |
| Ieri h: 14:40 | Pioggia Foschia | 15 | 15 | 100 | 1011 | 2 | NE 22.2 | |
| Ieri h: 14:39 | Pioggia Foschia | 15 | 15 | 100 | 1011 | 3 | NE 20.3 | |
| Ieri h: 14:10 | Pioggia Foschia | 16 | 15 | 93 | 1011 | 5 | N 16.7 | |
| Ieri h: 14:00 | Pioggia Foschia | 16 | 15 | 93 | 1011 | 2 | N/NE 14.8 | |
| Ieri h: 13:56 | Pioggia Foschia | 16 | 15 | 93 | 1011 | 2 | N 13 | |
| Ieri h: 13:50 | Pioggia Foschia | 16 | 15 | 93 | 1011 | 2 | N/NO 9.3 | |
| Ieri h: 13:42 | Pioggia Foschia | 16 | 15 | 93 | 1011 | 8 | N/NO 7.4 | |
| Ieri h: 13:37 | Pioggia Foschia | 16 | 15 | 93 | 1011 | 10 | N 7.4 | |
| Ieri h: 13:35 | Pioggia Foschia | 16 | 15 | 93 | 1011 | 6 | N 5.5 | |
| Ieri h: 13:32 | Pioggia Foschia | 16 | 15 | 93 | 1011 | 5 | N/NO 7.4 | |
| Ieri h: 13:27 | Pioggia Foschia | 16 | 15 | 93 | 1011 | 2 | NO 9.3 | |
| Ieri h: 13:20 | Pioggia Foschia | 16 | 14 | 87 | 1011 | 8 | NO 11.1 | |
| Ieri h: 13:19 | Pioggia | 16 | 14 | 87 | 1011 | 11 | NO 9.3 | |
| Ieri h: 13:00 | Coperto | 17 | 15 | 88 | 1011 | 14 | N/NO 7.4 | |
| Ieri h: 12:50 | Foschia | 16 | 14 | 87 | 1011 | 10 | NO 9.3 | |
| Ieri h: 12:41 | Foschia | 17 | 15 | 88 | 1011 | 8 | N 5.5 | |
| Ieri h: 12:38 | Coperto | 16 | 15 | 93 | 1011 | 11 | N 5.5 | |
| Ieri h: 12:01 | Coperto | 16 | 15 | 93 | 1011 | 14 | N/NO 9.3 | |
| Ieri h: 12:00 | Coperto | 17 | 15 | 88 | 1011 | 14 | NO 11.1 | |
| Ieri h: 11:48 | Coperto | 17 | 14 | 82 | 1011 | 14 | S 9.3 | |
| Ieri h: 11:44 | Coperto | 18 | 14 | 77 | 1011 | 14 | S/SE 11.1 | |
| Ieri h: 11:29 | Pioggia | 17 | 14 | 82 | 1011 | 14 | SE 7.4 | |
| Ieri h: 11:25 | Coperto | 17 | 14 | 82 | 1011 | 13 | S/SE 9.3 | |
| Ieri h: 11:00 | Coperto | 17 | 14 | 82 | 1011 | 14 | SE 9.3 | |
| Ieri h: 10:57 | Coperto | 17 | 14 | 82 | 1011 | 14 | SE 9.3 | |
| Ieri h: 10:44 | Pioggia | 17 | 13 | 77 | 1011 | 14 | S/SE 7.4 | |
Previsioni Meteo per località vicine a Sandspit B C
- Nessuna località trovata



